Flag for U.S.A. Weather past 2 weeks in Hereford, Texas, U.S.A.

Now
72 °F

Overcast.


Feels Like: 72 °F
Forecast: 66 / 85 °F
Wind: 5 mph from East

Location: Clovis Municipal

Current Time: Jul 31, 2015 at 2:25:33 AM

Latest Report: Jul 31, 2015 at 1:55 AM


Visibility: 10 mi

Pressure: 30.29 "Hg (26.46 "Hg at 1167m altitude)

Humidity: 78%

Dew point: 64 °F

Location of HerefordLocation

Historic Weather in Hereford — Graph

°F

Hereford temperature yesterday

Maximum temperature yesterday: 88 °F (at 4:35 PM)
Minimum temperature yesterday: 64 °F (at 8:15 AM)
Average temperature yesterday: 74 °F

Past Weeks' High & Low Weather Summary

 TemperatureHumidityPressure
High99 °F (Jul 27, 3:55 PM)100% (Jul 21, 7:35 AM)30.37 "Hg (Jul 21, 7:35 AM)
Low63 °F (Jul 20, 9:15 PM)23% (Jul 27, 3:15 PM)29.95 "Hg (Jul 27, 6:35 PM)
Average77 °F60%30.10 "Hg
* Reported Jul 16 1:15 AM — Jul 31 1:15 AM, Hereford, Weather by CustomWeather, © 2015

Note: Actual official high and low records may vary slightly from our data, if they occured in-between our weather recording intervals... More about our weather records

Advertising

Hereford weather history for previous 24 hours

 ConditionsComfort  
Time TempWeatherWind HumidityBarometerVisibility
1:15 AM
Fri, Jul 31
70 °FPassing clouds.5 mph83%30.30 "Hg10 mi
12:55 AM72 °FPassing clouds.6 mph78%30.30 "Hg10 mi
12:35 AM72 °FPassing clouds.7 mph78%30.31 "Hg10 mi
12:15 AM72 °FClear.7 mph78%30.30 "Hg10 mi
11:55 PM
Thu, Jul 30
72 °FPassing clouds.3 mph78%30.31 "Hg10 mi
11:35 PM72 °FClear.5 mph78%30.31 "Hg10 mi
10:55 PM72 °FPassing clouds.No wind78%30.31 "Hg10 mi
10:15 PM70 °FPassing clouds.6 mph83%30.29 "Hg10 mi
9:55 PM72 °FClear.No wind83%30.29 "Hg10 mi
9:35 PM72 °FSunny.No wind83%30.29 "Hg10 mi
9:15 PM72 °FSunny.No wind83%30.28 "Hg10 mi
8:55 PM73 °FSunny.6 mph78%30.27 "Hg10 mi
8:35 PM73 °FSunny.6 mph74%30.28 "Hg10 mi
8:15 PM75 °FPassing clouds.9 mph69%30.28 "Hg10 mi
7:55 PM75 °FThundershowers. Sunny.6 mph65%30.27 "Hg10 mi
7:35 PM75 °FThunderstorms. Scattered clouds.7 mph65%30.26 "Hg10 mi
7:15 PM75 °FThunderstorms. Partly sunny.3 mph69%30.28 "Hg10 mi
6:55 PM73 °FThunderstorms. Mostly cloudy.7 mph74%30.27 "Hg10 mi
6:35 PM77 °FThunderstorms. More clouds than sun.16 mph69%30.27 "Hg10 mi
6:15 PM79 °FMostly cloudy.14 mph65%30.25 "Hg10 mi
5:55 PM84 °FCloudy.8 mph45%30.25 "Hg10 mi
4:35 PM88 °FPassing clouds.8 mph43%30.27 "Hg10 mi
4:15 PM84 °FPassing clouds.8 mph48%30.28 "Hg10 mi
3:55 PM84 °FScattered clouds.7 mph48%30.29 "Hg10 mi
3:35 PM84 °FPartly sunny.No wind45%30.30 "Hg10 mi
3:15 PM84 °FPassing clouds.8 mph45%30.31 "Hg10 mi
2:55 PM84 °FPartly sunny.6 mph48%30.32 "Hg10 mi
2:35 PM82 °FScattered clouds.8 mph51%30.33 "Hg10 mi
2:15 PM81 °FSunny.9 mph51%30.33 "Hg10 mi
1:55 PM81 °FSunny.10 mph51%30.33 "Hg10 mi
1:35 PM81 °FSunny.10 mph51%30.34 "Hg10 mi
1:15 PM81 °FSunny.10 mph51%30.34 "Hg10 mi
12:55 PM81 °FSunny.10 mph51%30.34 "Hg10 mi
12:35 PM79 °FSunny.10 mph54%30.34 "Hg10 mi
12:15 PM81 °FSunny.10 mph51%30.33 "Hg10 mi
11:55 AM81 °FSunny.12 mph51%30.33 "Hg10 mi
11:35 AM79 °FSunny.12 mph54%30.33 "Hg10 mi
11:15 AM79 °FSunny.15 mph51%30.33 "Hg10 mi
10:55 AM77 °FSunny.14 mph54%30.33 "Hg10 mi
10:35 AM75 °FPassing clouds.14 mph61%30.33 "Hg10 mi
10:15 AM73 °FSunny.16 mph65%30.32 "Hg10 mi
9:55 AM72 °FSunny.18 mph69%30.32 "Hg10 mi
9:35 AM70 °FSunny.20 mph78%30.33 "Hg10 mi
9:15 AM70 °FSunny.17 mph73%30.33 "Hg10 mi
8:55 AM66 °FSunny.17 mph88%30.33 "Hg10 mi
8:35 AM66 °FSunny.18 mph88%30.33 "Hg10 mi
8:15 AM64 °FScattered clouds.20 mph94%30.33 "Hg10 mi
7:55 AM66 °FMostly cloudy.18 mph88%30.35 "Hg10 mi
7:35 AM66 °FMostly cloudy.12 mph83%30.37 "Hg10 mi
7:15 AM66 °FOvercast.13 mph88%30.36 "Hg10 mi
6:55 AM66 °FMostly cloudy.14 mph88%30.33 "Hg10 mi
6:35 AM68 °FMostly cloudy.15 mph83%30.32 "Hg10 mi
6:15 AM68 °FPassing clouds.12 mph83%30.30 "Hg10 mi
5:55 AM68 °FPassing clouds.15 mph83%30.30 "Hg10 mi
5:35 AM68 °FClear.15 mph78%30.29 "Hg10 mi
5:15 AM68 °FPassing clouds.13 mph78%30.29 "Hg10 mi
4:55 AM68 °FPartly cloudy.10 mph78%30.29 "Hg10 mi
4:35 AM68 °FPartly cloudy.15 mph78%30.29 "Hg10 mi
4:15 AM70 °FMostly cloudy.17 mph73%30.29 "Hg10 mi
3:55 AM70 °FPassing clouds.15 mph78%30.29 "Hg10 mi
3:35 AM70 °FPassing clouds.16 mph78%30.27 "Hg10 mi
3:15 AM70 °FPassing clouds.15 mph78%30.28 "Hg10 mi
2:55 AM70 °FPassing clouds.3 mph78%30.27 "Hg10 mi
2:35 AM70 °FClear.3 mph78%30.26 "Hg10 mi
2:15 AM72 °FClear.8 mph73%30.25 "Hg10 mi
Weather by CustomWeather, © 2015

See weather overviewHow to use our weather pages